Weather in Dubki

Russia / Lipetsk Oblast     53°32′45″N   39°00′59″E
temp.,
°C
wind,
m/s
gust,
m/s
humid.,
%
clouds,
%
prec.,
mm/h
press.,
hPa
HPBL,
m
17 april, sat
sat1700:00+10s01741 0.1 101914
03:00+9ne127319 0.1 101810
06:00+8ene3588100 0.0 101871
09:00+13ene5970100 0.1 1018472
12:00+13ese5773100 0.6 10171022
15:00+12ssw467896 1.6 1017445
18:00+9ssw4682100 0.5 1018576
21:00+8wsw3590100 4.2 1018330
18 april, sun
sun1800:00+7s2291100 2.1 1019138
03:00+6s2393100 2.3 101993
06:00+5wsw11935 0.0 101921
09:00+8s11755 0.0 1019488
12:00+11sse336298 0.3 10191229
15:00+9ssw1273100 0.7 1020319
18:00+10e1262100 0.1 1020636
21:00+9ene2280100 0.2 102163
19 april, mon
mon1900:00+8e227588 0.1 102119
03:00+8e2279100 0.2 102141
06:00+7ene3589100 0.1 1021141
09:00+9ene5681100 0.4 1021363
12:00+10e6678100 1.2 10211145
15:00+9ene6986100 4.4 1020854
18:00+7ene81289100 3.4 1021622
21:00+6e71290100 4.7 1021636
20 april, tue
tue2000:00+5e71289100 0.4 1020643
03:00+5ene71392100 0.8 1019600
06:00+5e81592100 3.9 1017666
09:00+5e91793100 8.3 1016781
12:00+5e91791100 1.0 1014841
15:00+6e112093100 4.9 1010996
18:00+7ese132392100 10.6 10061308
21:00+8se122389100 12.8 10041292
21 april, wed
wed2100:00+10se111990100 0.3 10011185
03:00+10sse11177699 1.6 10001096
06:00+8sse121988100 0.8 9991438
09:00+5s111892100 2.3 10021297
12:00+6ssw111785100 0.1 10061223
15:00+7ssw91478100 0.1 10101397
18:00+7ssw81382100 0.1 10131013
21:00+6ssw6138492 0.1 1016500